SHIJIAN-19 (SJ-19)

Last updated on Tue Oct 08 2024 00:02:05 GMT+0000 (Coordinated Universal Time)

1 61444U 24177A 24281.67033990 .00013458 00000+0 78595-4 0 9992 2 61444 41.5996 95.7860 0004988 354.1239 5.9549 15.78143000 1626
UTC large
Height (km)
Speed (km/s)
/
Latitude / Longitude
Inclination (degrees)
Orbital Period (minutes)
Azimuth
Elevation
Range (km)
Doppler Factor

Next 0 passes for location: London (51.5072 / 0.1276)

Sorry there are no passes over London.